Philadelphia, PA

5:35 PM EST on December 05, 2019 (GMT -0500)
Philadelphia International

Weather History for KPHL - June, 2019

Change the Weather History Date:

Thursday, June 6, 2019

  Actual Average Record
Temperature  
Mean Temperature 79 °F 70 °F  
Max Temperature 86 °F 80 °F 100 °F (1925)
Min Temperature 71 °F 61 °F 45 °F (1945)
Degree Days  
Heating Degree Days 0 1  
Month to date heating degree days 1 6  
Since 1 June heating degree days 1 6  
Since 1 July heating degree days 4360 4608  
Cooling Degree Days 14 6  
Month to date cooling degree days 43 34  
Year to date cooling degree days 193 125  
Since 1 June cooling degree days 43 34  
Growing Degree Days 28 (Base 50)    
Moisture  
Dew Point 66 °F    
Average Humidity 70    
Maximum Humidity 93    
Minimum Humidity 47    
Precipitation  
Precipitation T in 0.12 in 1.95 in (1877)
Month to date precipitation 1.06 0.73  
Year to date precipitation 20.34 17.47  
Snow  
Snow 0.00 in 0.00 in 0.00 in ()
Month to date snowfall 0.0 0.0  
Since 1 June snowfall 0.0 0.0  
Since 1 July snowfall 17.1 22.4  
Snow Depth 0.00 in    
Sea Level Pressure  
Sea Level Pressure 29.75 in    
Wind  
Wind Speed 10 mph (West)    
Max Wind Speed 22 mph    
Max Gust Speed 26 mph    
Visibility 9 miles    
Events Rain    
T = Trace of Precipitation, MM = Missing Value Source: NWS Daily Summary

Daily Weather History Graph

Daily Weather History Graph

Search for Another Location

Airport or City:

Astronomy

Jun. 06, 2019 Rise Set
Actual Time 5:33 AM EDT 8:26 PM EDT
Civil Twilight 5:00 AM EDT 8:58 PM EDT
Nautical Twilight 4:19 AM EDT 9:39 PM EDT
Astronomical Twilight 3:32 AM EDT 10:26 PM EDT
Moon 8:38 AM EDT (6/6) 11:42 PM EDT (6/6)
Length of Visible Light 15h 58m
Length of Day
14h 53m
Waxing Crescent, 13% of the Moon is Illuminated
Jun 6
Waxing Crescent
Jun 10
First Quarter
Jun 17
Full
Jun 25
Last Quarter
Jul 2
New

Hourly Weather History & Observations

Time (EDT) Temp. Heat Index Dew Point Humidity Pressure Visibility Wind Dir Wind Speed Gust Speed Precip Events Conditions
12:07 AM 73.0 °F - 69.1 °F 87% 29.76 in 10.0 mi SSW 10.4 mph - N/A   Overcast
12:35 AM 73.0 °F - 69.1 °F 87% 29.75 in 10.0 mi SW 12.7 mph - N/A   Overcast
12:54 AM 73.0 °F - 69.1 °F 87% 29.75 in 10.0 mi SW 9.2 mph - N/A   Overcast
1:14 AM 73.0 °F - 69.1 °F 87% 29.74 in 10.0 mi SW 8.1 mph - N/A   Overcast
1:22 AM 73.0 °F - 69.1 °F 87% 29.74 in 8.0 mi SW 9.2 mph - 0.00 in Rain Light Rain
1:54 AM 73.0 °F - 69.1 °F 87% 29.73 in 7.0 mi SW 9.2 mph - 0.00 in   Overcast
2:21 AM 73.0 °F - 69.1 °F 87% 29.71 in 8.0 mi SW 11.5 mph - N/A   Overcast
2:46 AM 73.0 °F - 69.1 °F 87% 29.70 in 6.0 mi SW 8.1 mph - N/A   Overcast
2:54 AM 73.0 °F - 69.1 °F 87% 29.70 in 6.0 mi SW 11.5 mph - N/A   Overcast
3:04 AM 73.0 °F - 69.1 °F 87% 29.70 in 7.0 mi SW 9.2 mph - N/A   Overcast
3:37 AM 73.0 °F - 69.1 °F 87% 29.71 in 7.0 mi SW 13.8 mph - N/A   Overcast
3:54 AM 72.0 °F - 69.1 °F 91% 29.71 in 7.0 mi SW 10.4 mph - N/A   Overcast
4:11 AM 72.0 °F - 69.1 °F 91% 29.70 in 8.0 mi SW 10.4 mph - N/A   Overcast
4:54 AM 72.0 °F - 69.1 °F 91% 29.71 in 8.0 mi SW 8.1 mph - N/A   Overcast
5:27 AM 72.0 °F - 69.1 °F 91% 29.72 in 5.0 mi SW 12.7 mph - N/A   Scattered Clouds
5:54 AM 72.0 °F - 69.1 °F 91% 29.72 in 5.0 mi SW 10.4 mph - N/A   Mostly Cloudy
6:54 AM 72.0 °F - 69.1 °F 91% 29.73 in 5.0 mi WSW 12.7 mph - N/A   Mostly Cloudy
7:23 AM 73.0 °F - 69.1 °F 87% 29.73 in 7.0 mi WSW 10.4 mph - N/A   Mostly Cloudy
7:54 AM 73.9 °F - 66.9 °F 79% 29.74 in 7.0 mi West 9.2 mph - N/A   Mostly Cloudy
8:54 AM 77.0 °F - 66.9 °F 71% 29.74 in 10.0 mi West 11.5 mph - N/A   Mostly Cloudy
9:54 AM 79.0 °F - 66.9 °F 66% 29.74 in 10.0 mi WNW 11.5 mph 19.6 mph N/A   Mostly Cloudy
10:54 AM 81.0 °F 82.7 °F 64.9 °F 58% 29.75 in 10.0 mi NW 12.7 mph - N/A   Mostly Cloudy
11:54 AM 82.9 °F 84.6 °F 64.9 °F 54% 29.75 in 10.0 mi West 9.2 mph - N/A   Mostly Cloudy
12:54 PM 84.0 °F 85.8 °F 64.9 °F 53% 29.74 in 10.0 mi NNW 6.9 mph - N/A   Scattered Clouds
1:54 PM 84.0 °F 85.4 °F 64.0 °F 51% 29.75 in 10.0 mi North 6.9 mph - N/A   Mostly Cloudy
2:54 PM 80.1 °F 82.1 °F 66.0 °F 62% 29.76 in 10.0 mi NNW 13.8 mph - N/A   Overcast
3:54 PM 82.9 °F 84.4 °F 64.0 °F 53% 29.76 in 10.0 mi North 8.1 mph 18.4 mph N/A   Mostly Cloudy
4:54 PM 84.9 °F 85.4 °F 62.1 °F 46% 29.76 in 10.0 mi NNW 10.4 mph 19.6 mph N/A   Scattered Clouds
5:54 PM 84.9 °F 86.1 °F 64.0 °F 49% 29.77 in 10.0 mi NNE 10.4 mph - N/A   Scattered Clouds
6:54 PM 82.9 °F 83.7 °F 62.1 °F 49% 29.78 in 10.0 mi North 10.4 mph - N/A   Mostly Cloudy
7:54 PM 82.0 °F 82.7 °F 61.0 °F 49% 29.80 in 10.0 mi North 8.1 mph - N/A   Mostly Cloudy
8:54 PM 79.0 °F - 61.0 °F 54% 29.81 in 10.0 mi North 6.9 mph - N/A   Scattered Clouds
9:54 PM 77.0 °F - 60.1 °F 56% 29.83 in 10.0 mi NE 5.8 mph - N/A   Scattered Clouds
10:54 PM 77.0 °F - 59.0 °F 54% 29.85 in 10.0 mi NE 8.1 mph - N/A   Mostly Cloudy
11:54 PM 73.9 °F - 60.1 °F 62% 29.85 in 10.0 mi NE 9.2 mph - N/A   Mostly Cloudy